FW6237 Weather Reports


Display with metric or nautical units.
time (UTC)temp
F
wind
direction
speed
MPH
gust
MPH
rain 1hr
in
rain 24hr
in
rain mn
in
humidity
%
barometer
mb
20260504050103 38 36 2.0 11.0 0.01 0.70 0.03 92 974.0
20260504044545 38 346 1.0 8.0 0.01 0.70 0.03 92 975.0
20260504043047 38 109 1.0 10.0 0.01 0.69 0.02 93 975.7
20260504041541 38 181 2.0 10.0 0.01 0.69 0.02 93 976.3
20260504040041 39 153 3.0 12.0 0.01 0.68 0.01 92 977.1
20260504034544 39 94 3.0 9.0 0.01 0.68 0.01 93 978.1
20260504033042 39 56 4.0 15.0 0.00 0.67 0.00 93 978.6
20260504031546 40 98 2.0 11.0 0.01 0.66 0.00 93 979.3
20260504030047 40 124 2.0 9.0 0.03 0.66 0.00 93 979.8
20260504024540 39 145 1.0 5.0 0.04 0.66 0.66 93 980.3
20260504023048 40 163 3.0 11.0 0.07 0.66 0.66 93 981.0
20260504021547 39 67 1.0 9.0 0.07 0.65 0.65 93 981.7
20260504020042 39 110 3.0 21.0 0.07 0.63 0.63 92 982.2
20260504014555 38 25 5.0 14.0 0.09 0.62 0.62 92 983.0
20260504013042 38 81 3.0 11.0 0.09 0.59 0.59 92 983.8
20260504011540 38 100 4.0 12.0 0.09 0.57 0.57 92 984.9
20260504004543 39 71 7.0 22.0 0.11 0.52 0.52 92 987.0
20260504003043 39 177 7.0 17.0 0.11 0.50 0.50 92 987.4
20260504001548 39 60 3.0 15.0 0.11 0.47 0.47 93 988.5
20260504000049 38 292 5.0 14.0 0.11 0.44 0.44 93 988.9
20260503234549 38 27 4.0 16.0 0.10 0.40 0.40 93 990.0
20260503233051 37 165 4.0 19.0 0.11 0.38 0.38 93 991.4
20260503231544 37 204 2.0 14.0 0.11 0.35 0.35 93 992.1
20260503230043 37 310 6.0 15.0 0.11 0.33 0.33 93 993.1
20260503224543 36 357 2.0 8.0 0.12 0.30 0.30 92 994.2
20260503223045 36 221 1.0 5.0 0.12 0.27 0.27 92 995.1
20260503221555 36 160 3.0 11.0 0.12 0.24 0.24 92 995.7
20260503220057 36 0 3.0 12.0 0.11 0.21 0.21 92 995.3
20260503214546 36 310 2.0 6.0 0.08 0.18 0.18 92 995.7
20260503213043 35 262 3.0 9.0 0.06 0.14 0.14 92 996.3
20260503211549 35 170 1.0 9.0 0.03 0.11 0.11 91 997.0
20260503210053 35 134 2.0 12.0 0.01 0.09 0.09 91 997.6
20260503204557 35 126 2.0 14.0 0.03 0.09 0.09 91 998.5
20260503203041 35 189 6.0 14.0 0.03 0.08 0.08 90 999.1
20260503201549 36 199 2.0 10.0 0.06 0.08 0.08 90 999.1
20260503200047 36 209 1.0 12.0 0.07 0.07 0.07 90 999.7
20260503194550 37 79 4.0 12.0 0.06 0.07 0.06 90 1000.8
20260503193043 38 241 2.0 4.0 0.05 0.06 0.05 89 1001.6
20260503191543 38 244 0.0 4.0 0.02 0.03 0.02 89 1002.6
20260503190051 38 0 1.0 8.0 0.00 0.00 0.00 88 1003.8
20260503184551 38 142 1.0 10.0 0.00 0.00 0.00 88 1004.3
20260503183051 38 140 1.0 8.0 0.00 0.00 0.00 87 1005.0
20260503181542 38 150 4.0 10.0 0.00 0.00 0.00 87 1005.8
20260503180049 39 130 2.0 10.0 0.00 0.00 0.00 87 1006.6
20260503174540 40 167 3.0 9.0 0.00 0.00 0.00 86 1006.6
20260503173131 42 154 4.0 10.0 0.00 0.00 0.00 82 1007.7
20260503171547 44 117 2.0 8.0 0.00 0.00 0.00 80 1007.4
20260503081555 31 0 0.0 1.0 0.00 0.00 0.00 91 1015.1
20260503071543 31 254 2.0 4.0 0.00 0.02 0.00 92 1015.4
20260503054543 31 0 0.0 5.0 0.00 0.34 0.00 93 1015.3